Weather History for Kearney, NE

Change the Weather History Date:

Saturday, December 1, 2012

  Actual Average Record
Temperature  
Mean Temperature 47 °F 30 °F  
Max Temperature 66 °F 41 °F 70 °F (1998)
Min Temperature 28 °F 18 °F -13 °F (1919)
Degree Days  
Heating Degree Days 18 35  
Cooling Degree Days 0 0  
Moisture  
Dew Point 33 °F    
Average Humidity 62    
Maximum Humidity 92    
Minimum Humidity 32    
Precipitation  
Precipitation 0.00 in - 0.86 in (1981)
Sea Level Pressure  
Sea Level Pressure 29.84 in    
Wind  
Wind Speed 6 mph (SW)    
Max Wind Speed 12 mph    
Max Gust Speed -    
Visibility 7 miles    
Events      
T = Trace of Precipitation, MM = Missing Value Source: NWS Daily Summary

Daily Weather History Graph

Daily Weather History Graph

Search for Another Location

Airport:

Trip Planner

Search our weather history database for the weather conditions in past years. The results will help you decide how hot, cold, wet, or windy it might be!

Date:

Astronomy

Dec. 01, 2012 Rise Set
Actual Time 7:41 AM CST 5:09 PM CST
Civil Twilight 7:10 AM CST 5:39 PM CST
Nautical Twilight 6:36 AM CST 6:13 PM CST
Astronomical Twilight 6:03 AM CST 6:46 PM CST
Moon 8:00 PM CST (12/1) 9:54 AM CST (12/1)
Length of Visible Light 10h 28m
Length of Day
9h 27m
Waning Gibbous, 91% of the Moon is Illuminated
Dec 1
Waning Gibbous
Dec 6
Last Quarter
Dec 13
New
Dec 19
First Quarter
Dec 28
Full

Hourly Weather History & Observations

Time (CST) Temp. Windchill Dew Point Humidity Pressure Visibility Wind Dir Wind Speed Gust Speed Precip Events Conditions
12:15 AM 33.8 °F 25.8 °F 26.6 °F 75% 29.88 in 10.0 mi South 10.4 mph - N/A   Clear
12:35 AM 33.8 °F 26.4 °F 26.6 °F 75% 29.87 in 10.0 mi South 9.2 mph - N/A   Clear
12:55 AM 35.6 °F 29.2 °F 28.4 °F 75% 29.87 in 10.0 mi SSE 8.1 mph - N/A   Clear
1:15 AM 33.8 °F 25.8 °F 28.4 °F 81% 29.85 in 10.0 mi SSE 10.4 mph - N/A   Clear
1:35 AM 35.6 °F 31.7 °F 28.4 °F 75% 29.84 in 10.0 mi South 4.6 mph - N/A   Clear
1:55 AM 35.6 °F - 28.4 °F 75% 29.84 in 10.0 mi Calm Calm - N/A   Clear
2:15 AM 35.6 °F - 30.2 °F 81% 29.84 in 10.0 mi Calm Calm - N/A   Clear
2:35 AM 37.4 °F 33.8 °F 33.8 °F 87% 29.84 in 10.0 mi South 4.6 mph - N/A   Clear
2:55 AM 35.6 °F 29.2 °F 30.2 °F 81% 29.83 in 7.0 mi South 8.1 mph - N/A   Clear
3:15 AM 30.2 °F 24.3 °F 26.6 °F 86% 29.83 in 7.0 mi SE 5.8 mph - N/A   Clear
3:35 AM 30.2 °F - 26.6 °F 86% 29.84 in 7.0 mi Calm Calm - N/A   Clear
3:55 AM 30.2 °F - 26.6 °F 86% 29.83 in 7.0 mi Calm Calm - N/A   Clear
4:15 AM 30.2 °F 26.7 °F 28.4 °F 93% 29.82 in 8.0 mi ENE 3.5 mph - N/A   Partly Cloudy
4:35 AM 30.2 °F - 26.6 °F 86% 29.83 in 7.0 mi Calm Calm - N/A   Mostly Cloudy
4:55 AM 30.2 °F - 28.4 °F 93% 29.83 in 7.0 mi Calm Calm - N/A   Overcast
5:15 AM 33.8 °F 28.6 °F 30.2 °F 87% 29.82 in 7.0 mi SSW 5.8 mph - N/A   Overcast
5:35 AM 35.6 °F 31.7 °F 33.8 °F 93% 29.81 in 6.0 mi SSW 4.6 mph - N/A   Overcast
5:55 AM 35.6 °F 30.7 °F 32.0 °F 87% 29.80 in 5.0 mi South 5.8 mph - N/A   Overcast
6:15 AM 37.4 °F - 35.6 °F 93% 29.82 in 0.5 mi Calm Calm - N/A   Overcast
6:35 AM 37.4 °F 31.4 °F 35.6 °F 93% 29.83 in 0.2 mi South 8.1 mph - N/A   Overcast
6:55 AM 37.4 °F 30.8 °F 35.6 °F 93% 29.83 in 0.2 mi South 9.2 mph - N/A   Overcast
7:15 AM 37.4 °F 34.9 °F 35.6 °F 93% 29.83 in 0.2 mi SW 3.5 mph - N/A   Overcast
7:35 AM 37.4 °F - 35.6 °F 93% 29.84 in 0.2 mi Calm Calm - N/A   Overcast
7:55 AM 37.4 °F 32.8 °F 35.6 °F 93% 29.85 in 0.2 mi WSW 5.8 mph - N/A   Overcast
8:15 AM 37.4 °F 32.1 °F 35.6 °F 93% 29.83 in 0.2 mi South 6.9 mph - N/A   Overcast
8:35 AM 37.4 °F 31.4 °F 35.6 °F 93% 29.85 in 0.2 mi SSW 8.1 mph - N/A   Overcast
8:55 AM 37.4 °F 30.8 °F 35.6 °F 93% 29.85 in 0.2 mi WSW 9.2 mph - N/A   Overcast
9:15 AM 37.4 °F 30.8 °F 37.4 °F 100% 29.85 in 0.2 mi South 9.2 mph - N/A   Overcast
9:35 AM 37.4 °F 29.8 °F 37.4 °F 100% 29.85 in 0.2 mi South 11.5 mph - N/A   Overcast
9:55 AM 39.2 °F 32.5 °F 37.4 °F 93% 29.84 in 0.2 mi SSW 10.4 mph - N/A   Overcast
10:15 AM 39.2 °F 33.0 °F 37.4 °F 93% 29.85 in 0.2 mi SW 9.2 mph - N/A   Overcast
10:35 AM 39.2 °F 33.0 °F 37.4 °F 93% 29.84 in 0.2 mi SSW 9.2 mph - N/A   Overcast
10:55 AM 39.2 °F 32.0 °F 37.4 °F 93% 29.84 in 0.5 mi SW 11.5 mph - N/A   Overcast
11:15 AM 41.0 °F 35.2 °F 39.2 °F 93% 29.84 in 3.0 mi SW 9.2 mph - N/A   Mostly Cloudy
11:35 AM 42.8 °F 37.5 °F 39.2 °F 87% 29.84 in 7.0 mi WSW 9.2 mph - N/A   Partly Cloudy
11:55 AM 44.6 °F 40.7 °F 39.2 °F 81% 29.84 in 10.0 mi WSW 6.9 mph - N/A   Clear
12:15 PM 48.2 °F - 39.2 °F 71% 29.82 in 10.0 mi SW 5.8 mph - N/A   Clear
12:35 PM 51.8 °F - 39.2 °F 62% 29.81 in 10.0 mi WSW 5.8 mph - N/A   Clear
12:55 PM 53.6 °F - 39.2 °F 58% 29.81 in 10.0 mi WSW 8.1 mph - N/A   Clear
1:15 PM 57.2 °F - 39.2 °F 51% 29.80 in 10.0 mi West 4.6 mph - N/A   Clear
1:35 PM 60.8 °F - 39.2 °F 45% 29.79 in 10.0 mi SSW 3.5 mph - N/A   Clear
1:55 PM 62.6 °F - 39.2 °F 42% 29.80 in 10.0 mi WSW 3.5 mph - N/A   Clear
2:15 PM 64.4 °F - 37.4 °F 37% 29.78 in 10.0 mi Calm Calm - N/A   Clear
2:35 PM 66.2 °F - 35.6 °F 32% 29.79 in 10.0 mi Calm Calm - N/A   Clear
2:55 PM 66.2 °F - 35.6 °F 32% 29.78 in 10.0 mi South 4.6 mph - N/A   Clear
3:15 PM 66.2 °F - 35.6 °F 32% 29.80 in 10.0 mi SW 6.9 mph - N/A   Clear
3:35 PM 66.2 °F - 35.6 °F 32% 29.80 in 10.0 mi SW 4.6 mph - N/A   Clear
3:55 PM 64.4 °F - 35.6 °F 34% 29.81 in 10.0 mi South 6.9 mph - N/A   Clear
4:15 PM 64.4 °F - 35.6 °F 34% 29.81 in 10.0 mi South 8.1 mph - N/A   Clear
4:35 PM 60.8 °F - 35.6 °F 39% 29.81 in 10.0 mi South 4.6 mph - N/A   Clear
4:55 PM 59.0 °F - 35.6 °F 42% 29.82 in 10.0 mi South 6.9 mph - N/A   Clear
5:15 PM 57.2 °F - 33.8 °F 41% 29.82 in 10.0 mi South 5.8 mph - N/A   Clear
5:35 PM 57.2 °F - 33.8 °F 41% 29.83 in 10.0 mi SSW 3.5 mph - N/A   Clear
5:55 PM 55.4 °F - 33.8 °F 44% 29.84 in 10.0 mi SW 3.5 mph - N/A   Clear
6:15 PM 55.4 °F - 33.8 °F 44% 29.85 in 10.0 mi WSW 4.6 mph - N/A   Clear
6:35 PM 48.2 °F - 30.2 °F 50% 29.86 in 10.0 mi West 3.5 mph - N/A   Clear
6:55 PM 50.0 °F - 30.2 °F 47% 29.86 in 10.0 mi WNW 4.6 mph - N/A   Clear
7:15 PM 46.4 °F 42.4 °F 30.2 °F 53% 29.86 in 10.0 mi NW 8.1 mph - N/A   Clear
7:35 PM 46.4 °F 42.9 °F 30.2 °F 53% 29.87 in 10.0 mi WNW 6.9 mph - N/A   Clear
7:55 PM 44.6 °F 42.2 °F 30.2 °F 57% 29.88 in 10.0 mi WSW 4.6 mph - N/A   Clear
8:15 PM 44.6 °F 41.4 °F 30.2 °F 57% 29.88 in 10.0 mi SSW 5.8 mph - N/A   Clear
8:35 PM 44.6 °F 42.2 °F 28.4 °F 53% 29.88 in 10.0 mi SW 4.6 mph - N/A   Clear
8:55 PM 46.4 °F 42.4 °F 30.2 °F 53% 29.89 in 10.0 mi WSW 8.1 mph - N/A   Clear
9:15 PM 42.8 °F 39.3 °F 30.2 °F 61% 29.90 in 10.0 mi West 5.8 mph - N/A   Clear
9:35 PM 39.2 °F 35.9 °F 28.4 °F 65% 29.91 in 10.0 mi WNW 4.6 mph - N/A   Clear
9:55 PM 42.8 °F 38.6 °F 28.4 °F 57% 29.92 in 10.0 mi WNW 6.9 mph - N/A   Clear
10:15 PM 39.2 °F 33.0 °F 26.6 °F 61% 29.92 in 10.0 mi WNW 9.2 mph - N/A   Clear
10:35 PM 39.2 °F 33.6 °F 26.6 °F 61% 29.92 in 10.0 mi West 8.1 mph - N/A   Clear
10:55 PM 39.2 °F 37.0 °F 26.6 °F 61% 29.92 in 10.0 mi West 3.5 mph - N/A   Clear
11:15 PM 41.0 °F 35.8 °F 28.4 °F 61% 29.92 in 10.0 mi WNW 8.1 mph - N/A   Clear
11:35 PM 39.2 °F 35.9 °F 26.6 °F 61% 29.92 in 10.0 mi NW 4.6 mph - N/A   Clear
11:55 PM 37.4 °F 32.1 °F 26.6 °F 65% 29.92 in 10.0 mi WNW 6.9 mph - N/A   Clear